This is the latest recevied weather packets stored in our database for station/object W3JGB. If no packets are shown the sender has not sent any weather packets the latest 10 day(s).
| Time | Temp. | Humidity | Pressure | Rain* | Wind** | Luminosity | Snow |
|---|---|---|---|---|---|---|---|
| 1778169216 | 15° C | 43% | 1010.9 hPa | 0 mm | - | 353 W/m² | - |
| 1778168914 | 15° C | 41% | 1011.2 hPa | 0 mm | - | 149 W/m² | - |
| 1778168611 | 15° C | 47% | 1011.1 hPa | 0 mm | - | 444 W/m² | - |
| 1778168308 | 13.89° C | 48% | 1011.1 hPa | 0 mm | - | 583 W/m² | - |
| 1778168004 | 13.89° C | 43% | 1011 hPa | 0 mm | - | 422 W/m² | - |
| 1778167700 | 13.89° C | 44% | 1011.3 hPa | 0 mm | - | 360 W/m² | - |
| 1778167397 | 14.44° C | 46% | 1011.8 hPa | 0 mm | - | 237 W/m² | - |
| 1778167093 | 13.89° C | 44% | 1011.4 hPa | 0 mm | - | 481 W/m² | - |
| 1778166789 | 13.89° C | 45% | 1011.5 hPa | 0 mm | - | 114 W/m² | - |
| 1778166486 | 13.89° C | 42% | 1011.6 hPa | 0 mm | - | 70 W/m² | - |
| 1778166183 | 13.89° C | 47% | 1011.6 hPa | 0 mm | - | 526 W/m² | - |
| 1778165879 | 13.33° C | 42% | 1011.8 hPa | 0 mm | - | 662 W/m² | - |
| 1778165576 | 13.89° C | 46% | 1011.8 hPa | 0 mm | - | 99 W/m² | - |
| 1778165273 | 13.33° C | 46% | 1012 hPa | 0 mm | - | 410 W/m² | - |
| 1778164970 | 13.33° C | 48% | 1011.9 hPa | 0 mm | - | 208 W/m² | - |
| 1778164666 | 13.33° C | 47% | 1012.1 hPa | 0 mm | - | 92 W/m² | - |
| 1778164364 | 12.78° C | 46% | 1012 hPa | 0 mm | - | 409 W/m² | - |
| 1778164060 | 13.33° C | 50% | 1011.9 hPa | 0 mm | - | 308 W/m² | - |
| 1778163757 | 13.33° C | 46% | 1012.1 hPa | 0 mm | - | 560 W/m² | - |
| 1778163453 | 12.78° C | 47% | 1012 hPa | 0 mm | - | 401 W/m² | - |
| 1778163150 | 12.78° C | 48% | 1012.1 hPa | 0 mm | - | 121 W/m² | - |
| 1778162846 | 12.78° C | 46% | 1012.2 hPa | 0 mm | - | 440 W/m² | - |
| 1778162544 | 12.78° C | 48% | 1012.1 hPa | 0 mm | - | 131 W/m² | - |
| 1778162240 | 12.78° C | 52% | 1012.2 hPa | 0 mm | - | 311 W/m² | - |
| 1778161938 | 12.78° C | 48% | 1012.3 hPa | 0 mm | - | 436 W/m² | - |
* Rain latest hour (hover to see other rain measurements)
** Current wind speed in m/s (hover to see current wind gust speed)